EN

Hourly Weather Kyzyl-Mayak

Today, 26 July, Monday

Time Temperature Precipitation Wind Pressure Humidity
00:00 +16°C° 0 mm 3 mps 751 mmHg 52%
01:00 +15°C° 0 mm 2 mps 751 mmHg 53%
02:00 +14°C° 0 mm 2 mps 752 mmHg 54%
03:00 +14°C° 0 mm 2 mps 752 mmHg 55%
04:00 +13°C° 0 mm 2 mps 752 mmHg 55%
05:00 +14°C° 0 mm 2 mps 752 mmHg 51%
06:00 +16°C° 0 mm 2 mps 752 mmHg 47%
07:00 +17°C° 0 mm 2 mps 753 mmHg 42%
08:00 +19°C° 0 mm 3 mps 753 mmHg 38%
09:00 +21°C° 0 mm 3 mps 753 mmHg 34%
10:00 +22°C° 0 mm 4 mps 753 mmHg 31%
11:00 +23°C° 0 mm 4 mps 753 mmHg 30%
12:00 +25°C° 0 mm 4 mps 753 mmHg 28%
13:00 +25°C° 0 mm 4 mps 752 mmHg 27%
14:00 +26°C° 0 mm 4 mps 752 mmHg 26%
15:00 +26°C° 0 mm 4 mps 752 mmHg 26%
16:00 +26°C° 0 mm 4 mps 752 mmHg 25%
17:00 +25°C° 0 mm 4 mps 751 mmHg 28%
18:00 +23°C° 0 mm 4 mps 751 mmHg 30%
19:00 +24°C° 0 mm 3 mps 751 mmHg 33%
20:00 +21°C° 0 mm 3 mps 751 mmHg 36%
21:00 +19°C° 0 mm 2 mps 751 mmHg 39%
22:00 +18°C° 0 mm 2 mps 751 mmHg 42%
23:00 +17°C° 0 mm 2 mps 751 mmHg 43%

Tomorrow, 27 July, Tuesday

Time Temperature Precipitation Wind Pressure Humidity
00:00 +17°C° 0 mm 2 mps 751 mmHg 43%
01:00 +16°C° 0 mm 2 mps 751 mmHg 44%
02:00 +15°C° 0 mm 1 mps 751 mmHg 46%
03:00 +14°C° 0 mm 1 mps 751 mmHg 48%
04:00 +14°C° 0 mm 1 mps 751 mmHg 49%
05:00 +15°C° 0 mm 1 mps 751 mmHg 46%
06:00 +18°C° 0 mm 1 mps 751 mmHg 43%
07:00 +19°C° 0 mm 1 mps 751 mmHg 40%
08:00 +20°C° 0 mm 2 mps 751 mmHg 36%
09:00 +23°C° 0 mm 2 mps 751 mmHg 32%
10:00 +25°C° 0 mm 3 mps 751 mmHg 28%
11:00 +26°C° 0 mm 3 mps 751 mmHg 28%
12:00 +26°C° 0 mm 4 mps 750 mmHg 28%
13:00 +27°C° 0 mm 4 mps 750 mmHg 27%
14:00 +27°C° 0 mm 4 mps 749 mmHg 27%
15:00 +27°C° 0 mm 5 mps 749 mmHg 27%
16:00 +28°C° 0 mm 5 mps 749 mmHg 27%
17:00 +27°C° 0 mm 4 mps 748 mmHg 30%
18:00 +26°C° 0 mm 4 mps 748 mmHg 33%
19:00 +25°C° 0 mm 3 mps 748 mmHg 37%
20:00 +24°C° 0 mm 3 mps 748 mmHg 40%
21:00 +21°C° 0 mm 2 mps 748 mmHg 44%
22:00 +20°C° 0 mm 2 mps 748 mmHg 48%
23:00 +19°C° 0 mm 2 mps 748 mmHg 54%

Day after tomorrow, 28 July, Wednesday

Time Temperature Precipitation Wind Pressure Humidity
00:00 +19°C° 0 mm 1 mps 748 mmHg 61%
01:00 +18°C° 0 mm 1 mps 747 mmHg 68%
02:00 +16°C° 0 mm 1 mps 747 mmHg 72%
03:00 +16°C° 0 mm 1 mps 747 mmHg 76%
04:00 +15°C° 0 mm 2 mps 747 mmHg 80%
05:00 +16°C° 0 mm 2 mps 747 mmHg 75%
06:00 +18°C° 0 mm 2 mps 748 mmHg 69%
07:00 +19°C° 0 mm 3 mps 748 mmHg 64%
08:00 +21°C° 0 mm 3 mps 748 mmHg 54%
09:00 +23°C° 0 mm 4 mps 748 mmHg 44%
10:00 +25°C° 0 mm 4 mps 747 mmHg 34%
11:00 +26°C° 0 mm 5 mps 747 mmHg 33%
12:00 +27°C° 0 mm 6 mps 747 mmHg 32%
13:00 +27°C° 0 mm 6 mps 747 mmHg 31%
14:00 +27°C° 0 mm 6 mps 747 mmHg 29%
15:00 +28°C° 0 mm 7 mps 746 mmHg 27%
16:00 +28°C° 0 mm 7 mps 746 mmHg 25%
17:00 +27°C° 0 mm 6 mps 746 mmHg 27%
18:00 +26°C° 0 mm 5 mps 746 mmHg 28%
19:00 +26°C° 0 mm 4 mps 746 mmHg 30%
20:00 +22°C° 0 mm 3 mps 747 mmHg 34%
21:00 +20°C° 0 mm 2 mps 747 mmHg 38%
22:00 +18°C° 0 mm 2 mps 747 mmHg 42%
23:00 +18°C° 0 mm 1 mps 747 mmHg 44%

29 July, Thursday

Time Temperature Precipitation Wind Pressure Humidity
00:00 +16°C° 0 mm 1 mps 747 mmHg 46%
01:00 +16°C° 0 mm 1 mps 747 mmHg 48%
02:00 +15°C° 0 mm 1 mps 747 mmHg 50%
03:00 +15°C° 0 mm 1 mps 747 mmHg 51%
04:00 +13°C° 0 mm 0 mps 747 mmHg 52%
05:00 +15°C° 0 mm 0 mps 747 mmHg 48%
06:00 +17°C° 0 mm 0 mps 748 mmHg 43%
07:00 +19°C° 0 mm 0 mps 748 mmHg 39%
08:00 +23°C° 0 mm 1 mps 748 mmHg 35%
09:00 +25°C° 0 mm 2 mps 748 mmHg 31%
10:00 +27°C° 0 mm 3 mps 748 mmHg 27%
11:00 +28°C° 0 mm 3 mps 747 mmHg 25%
12:00 +29°C° 0 mm 4 mps 747 mmHg 23%
13:00 +30°C° 0 mm 4 mps 747 mmHg 21%
14:00 +30°C° 0 mm 4 mps 747 mmHg 21%
15:00 +30°C° 0 mm 4 mps 746 mmHg 21%
16:00 +30°C° 0 mm 3 mps 746 mmHg 22%
17:00 +29°C° 0 mm 3 mps 746 mmHg 25%
18:00 +28°C° 0 mm 2 mps 745 mmHg 29%
19:00 +27°C° 0 mm 1 mps 745 mmHg 33%
20:00 +26°C° 0 mm 1 mps 745 mmHg 33%
21:00 +25°C° 0 mm 1 mps 745 mmHg 33%
22:00 +24°C° 0 mm 2 mps 745 mmHg 34%
23:00 +24°C° 0 mm 2 mps 744 mmHg 35%

30 July, Friday

Time Temperature Precipitation Wind Pressure Humidity
00:00 +25°C° 0 mm 3 mps 744 mmHg 35%
01:00 +25°C° 0 mm 4 mps 743 mmHg 36%
02:00 +25°C° 0 mm 5 mps 743 mmHg 35%
03:00 +26°C° 0 mm 6 mps 743 mmHg 34%
04:00 +27°C° 0 mm 7 mps 742 mmHg 33%
05:00 +26°C° 0.1 mm 6 mps 742 mmHg 38%
06:00 +26°C° 0.1 mm 6 mps 742 mmHg 43%
07:00 +26°C° 0.1 mm 6 mps 743 mmHg 49%
08:00 +27°C° 0.1 mm 6 mps 743 mmHg 47%
09:00 +29°C° 0.1 mm 6 mps 743 mmHg 45%
10:00 +32°C° 0.1 mm 7 mps 743 mmHg 43%
11:00 +32°C° 0 mm 7 mps 743 mmHg 41%
12:00 +32°C° 0 mm 7 mps 743 mmHg 39%
13:00 +33°C° 0 mm 8 mps 743 mmHg 37%
14:00 +32°C° 0.2 mm 7 mps 743 mmHg 39%
15:00 +30°C° 0.2 mm 6 mps 743 mmHg 42%
16:00 +30°C° 0.2 mm 5 mps 743 mmHg 44%
17:00 +30°C° 0 mm 4 mps 743 mmHg 45%
18:00 +30°C° 0 mm 3 mps 743 mmHg 45%
19:00 +29°C° 0 mm 2 mps 743 mmHg 45%
20:00 +28°C° 0.1 mm 2 mps 743 mmHg 52%
21:00 +26°C° 0.1 mm 2 mps 743 mmHg 58%
22:00 +24°C° 0.1 mm 1 mps 744 mmHg 65%
23:00 +23°C° 0.2 mm 1 mps 744 mmHg 70%

31 July, Saturday

Time Temperature Precipitation Wind Pressure Humidity
00:00 +22°C° 0.2 mm 1 mps 744 mmHg 75%
01:00 +22°C° 0.2 mm 1 mps 744 mmHg 80%
02:00 +22°C° 0 mm 1 mps 744 mmHg 79%
03:00 +22°C° 0 mm 1 mps 744 mmHg 79%
04:00 +22°C° 0 mm 1 mps 744 mmHg 78%
05:00 +22°C° 0.2 mm 1 mps 744 mmHg 81%
06:00 +22°C° 0.2 mm 1 mps 745 mmHg 85%
07:00 +22°C° 0.2 mm 1 mps 745 mmHg 88%
08:00 +22°C° 0.6 mm 1 mps 745 mmHg 89%
09:00 +22°C° 0.6 mm 1 mps 745 mmHg 90%
10:00 +21°C° 0.6 mm 2 mps 745 mmHg 91%
11:00 +21°C° 1 mm 2 mps 745 mmHg 87%
12:00 +23°C° 1 mm 2 mps 745 mmHg 83%
13:00 +24°C° 1 mm 3 mps 745 mmHg 79%
14:00 +26°C° 0 mm 2 mps 745 mmHg 70%
15:00 +27°C° 0 mm 2 mps 745 mmHg 62%
16:00 +29°C° 0 mm 1 mps 745 mmHg 53%
17:00 +29°C° 0 mm 1 mps 745 mmHg 55%
18:00 +29°C° 0 mm 2 mps 745 mmHg 57%
19:00 +28°C° 0 mm 2 mps 745 mmHg 58%
20:00 +27°C° 0 mm 2 mps 745 mmHg 65%
21:00 +25°C° 0 mm 2 mps 745 mmHg 71%
22:00 +23°C° 0 mm 1 mps 745 mmHg 78%
23:00 +23°C° 0 mm 1 mps 745 mmHg 78%
Show more